When you browse on this site, cookies collect data to enhance your experience and personalize the content and advertising you see.
Visit our Privacy Policy to learn more. By continuing to use the site, you agree to this use of cookies and data.
  • în România
  • Lista ţărilor
  • Pe 7 zile
  • Temperatura apei
  • Meteo pe hartă
  • Widget-uri
  • user-avatar
    Intrare

    Meteo pe oră la San Luis

    Astăzi, 3 Iunie, Miercuri

    Timp Temperatura Precipitaţii Vânt Presiune Umiditate
    00:00 +7°C° 0 mm 2 m/s 696 mmHg 59%
    01:00 +7°C° 0 mm 2 m/s 696 mmHg 62%
    02:00 +6°C° 0 mm 2 m/s 696 mmHg 64%
    03:00 +6°C° 0 mm 2 m/s 696 mmHg 68%
    04:00 +6°C° 0 mm 1 m/s 696 mmHg 71%
    05:00 +6°C° 0 mm 1 m/s 696 mmHg 74%
    06:00 +5°C° 0 mm 2 m/s 697 mmHg 71%
    07:00 +6°C° 0 mm 2 m/s 698 mmHg 67%
    08:00 +7°C° 0 mm 3 m/s 699 mmHg 64%
    09:00 +8°C° 0 mm 3 m/s 700 mmHg 59%
    10:00 +9°C° 0 mm 3 m/s 700 mmHg 54%
    11:00 +11°C° 0 mm 3 m/s 701 mmHg 49%
    12:00 +10°C° 0 mm 3 m/s 701 mmHg 51%
    13:00 +10°C° 0 mm 3 m/s 701 mmHg 53%
    14:00 +9°C° 0 mm 3 m/s 701 mmHg 54%
    15:00 +9°C° 0 mm 3 m/s 702 mmHg 55%
    16:00 +9°C° 0 mm 3 m/s 702 mmHg 56%
    17:00 +10°C° 0 mm 2 m/s 702 mmHg 57%
    18:00 +9°C° 0 mm 3 m/s 703 mmHg 60%
    19:00 +8°C° 0 mm 4 m/s 703 mmHg 64%
    20:00 +7°C° 0 mm 4 m/s 704 mmHg 67%
    21:00 +7°C° 0 mm 4 m/s 704 mmHg 70%
    22:00 +6°C° 0 mm 4 m/s 704 mmHg 72%
    23:00 +7°C° 0 mm 3 m/s 704 mmHg 75%

    Mâine, 4 Iunie, Joi

    Timp Temperatura Precipitaţii Vânt Presiune Umiditate
    00:00 +7°C° 0 mm 3 m/s 704 mmHg 74%
    01:00 +7°C° 0 mm 2 m/s 704 mmHg 74%
    02:00 +7°C° 0 mm 2 m/s 704 mmHg 73%
    03:00 +7°C° 0 mm 2 m/s 703 mmHg 75%
    04:00 +6°C° 0 mm 2 m/s 703 mmHg 78%
    05:00 +7°C° 0 mm 1 m/s 703 mmHg 80%
    06:00 +7°C° 0 mm 1 m/s 703 mmHg 79%
    07:00 +6°C° 0 mm 2 m/s 703 mmHg 79%
    08:00 +6°C° 0 mm 2 m/s 704 mmHg 78%
    09:00 +8°C° 0 mm 2 m/s 704 mmHg 71%
    10:00 +10°C° 0 mm 3 m/s 704 mmHg 64%
    11:00 +12°C° 0 mm 3 m/s 704 mmHg 57%
    12:00 +13°C° 0 mm 4 m/s 704 mmHg 54%
    13:00 +13°C° 0 mm 4 m/s 703 mmHg 50%
    14:00 +14°C° 0 mm 4 m/s 702 mmHg 46%
    15:00 +13°C° 0 mm 4 m/s 702 mmHg 49%
    16:00 +13°C° 0 mm 3 m/s 701 mmHg 52%
    17:00 +13°C° 0 mm 2 m/s 701 mmHg 55%
    18:00 +10°C° 0 mm 2 m/s 701 mmHg 61%
    19:00 +9°C° 0 mm 2 m/s 701 mmHg 68%
    20:00 +8°C° 0 mm 2 m/s 701 mmHg 74%
    21:00 +7°C° 0 mm 2 m/s 701 mmHg 77%
    22:00 +7°C° 0 mm 1 m/s 701 mmHg 80%
    23:00 +7°C° 0 mm 1 m/s 701 mmHg 83%

    Poimâine, 5 Iunie, Vineri

    Timp Temperatura Precipitaţii Vânt Presiune Umiditate
    00:00 +7°C° 0 mm 1 m/s 701 mmHg 82%
    01:00 +6°C° 0 mm 2 m/s 700 mmHg 81%
    02:00 +6°C° 0 mm 2 m/s 700 mmHg 79%
    03:00 +5°C° 0 mm 3 m/s 700 mmHg 79%
    04:00 +5°C° 0 mm 3 m/s 700 mmHg 80%
    05:00 +5°C° 0 mm 3 m/s 700 mmHg 80%
    06:00 +5°C° 0 mm 3 m/s 700 mmHg 79%
    07:00 +5°C° 0 mm 3 m/s 700 mmHg 79%
    08:00 +5°C° 0 mm 3 m/s 700 mmHg 78%
    09:00 +9°C° 0 mm 3 m/s 700 mmHg 67%
    10:00 +12°C° 0 mm 3 m/s 701 mmHg 55%
    11:00 +14°C° 0 mm 4 m/s 701 mmHg 44%
    12:00 +16°C° 0 mm 3 m/s 700 mmHg 40%
    13:00 +17°C° 0 mm 3 m/s 700 mmHg 37%
    14:00 +18°C° 0 mm 3 m/s 699 mmHg 33%
    15:00 +17°C° 0 mm 2 m/s 699 mmHg 36%
    16:00 +16°C° 0 mm 2 m/s 699 mmHg 40%
    17:00 +15°C° 0 mm 1 m/s 698 mmHg 43%
    18:00 +13°C° 0 mm 1 m/s 698 mmHg 49%
    19:00 +12°C° 0 mm 2 m/s 698 mmHg 56%
    20:00 +9°C° 0 mm 2 m/s 698 mmHg 62%
    21:00 +9°C° 0 mm 2 m/s 698 mmHg 62%
    22:00 +9°C° 0 mm 2 m/s 698 mmHg 63%
    23:00 +9°C° 0 mm 2 m/s 698 mmHg 63%

    6 Iunie, Sâmbătă

    Timp Temperatura Precipitaţii Vânt Presiune Umiditate
    00:00 +8°C° 0 mm 2 m/s 698 mmHg 64%
    01:00 +8°C° 0 mm 3 m/s 697 mmHg 66%
    02:00 +8°C° 0 mm 3 m/s 697 mmHg 67%
    03:00 +8°C° 0 mm 3 m/s 697 mmHg 67%
    04:00 +7°C° 0 mm 3 m/s 696 mmHg 67%
    05:00 +7°C° 0 mm 2 m/s 696 mmHg 66%
    06:00 +7°C° 0 mm 2 m/s 696 mmHg 64%
    07:00 +7°C° 0 mm 2 m/s 697 mmHg 62%
    08:00 +7°C° 0 mm 2 m/s 697 mmHg 61%
    09:00 +11°C° 0 mm 3 m/s 697 mmHg 50%
    10:00 +14°C° 0 mm 3 m/s 697 mmHg 39%
    11:00 +18°C° 0 mm 4 m/s 698 mmHg 28%
    12:00 +19°C° 0 mm 4 m/s 697 mmHg 25%
    13:00 +20°C° 0 mm 5 m/s 697 mmHg 22%
    14:00 +21°C° 0 mm 5 m/s 696 mmHg 19%
    15:00 +20°C° 0 mm 4 m/s 696 mmHg 23%
    16:00 +18°C° 0 mm 4 m/s 696 mmHg 26%
    17:00 +17°C° 0 mm 3 m/s 695 mmHg 30%
    18:00 +14°C° 0 mm 3 m/s 696 mmHg 34%
    19:00 +13°C° 0 mm 2 m/s 696 mmHg 39%
    20:00 +10°C° 0 mm 2 m/s 696 mmHg 43%
    21:00 +10°C° 0 mm 2 m/s 697 mmHg 43%
    22:00 +10°C° 0 mm 3 m/s 697 mmHg 43%
    23:00 +10°C° 0 mm 3 m/s 697 mmHg 43%

    7 Iunie, Duminică

    Timp Temperatura Precipitaţii Vânt Presiune Umiditate
    00:00 +9°C° 0 mm 3 m/s 698 mmHg 47%
    01:00 +9°C° 0 mm 2 m/s 698 mmHg 51%
    02:00 +8°C° 0 mm 2 m/s 698 mmHg 55%
    03:00 +8°C° 0 mm 1 m/s 698 mmHg 58%
    04:00 +8°C° 0 mm 1 m/s 699 mmHg 61%
    05:00 +7°C° 0 mm 1 m/s 699 mmHg 64%
    06:00 +8°C° 0 mm 1 m/s 699 mmHg 62%
    07:00 +8°C° 0 mm 1 m/s 700 mmHg 60%
    08:00 +8°C° 0 mm 1 m/s 700 mmHg 58%
    09:00 +10°C° 0 mm 1 m/s 701 mmHg 51%
    10:00 +13°C° 0 mm 1 m/s 701 mmHg 45%
    11:00 +15°C° 0 mm 1 m/s 701 mmHg 38%
    12:00 +17°C° 0 mm 2 m/s 701 mmHg 36%
    13:00 +18°C° 0 mm 3 m/s 700 mmHg 34%
    14:00 +19°C° 0 mm 4 m/s 700 mmHg 33%
    15:00 +19°C° 0 mm 4 m/s 699 mmHg 36%
    16:00 +18°C° 0 mm 4 m/s 699 mmHg 40%
    17:00 +17°C° 0 mm 4 m/s 699 mmHg 43%
    18:00 +14°C° 0 mm 4 m/s 698 mmHg 49%
    19:00 +12°C° 0 mm 3 m/s 698 mmHg 55%
    20:00 +11°C° 0 mm 3 m/s 698 mmHg 60%
    21:00 +10°C° 0 mm 3 m/s 698 mmHg 63%
    22:00 +10°C° 0 mm 3 m/s 698 mmHg 65%
    23:00 +10°C° 0 mm 4 m/s 698 mmHg 67%

    8 Iunie, Luni

    Timp Temperatura Precipitaţii Vânt Presiune Umiditate
    00:00 +10°C° 0 mm 4 m/s 698 mmHg 68%
    01:00 +10°C° 0 mm 4 m/s 698 mmHg 69%
    02:00 +10°C° 0 mm 4 m/s 698 mmHg 70%
    03:00 +8°C° 0 mm 4 m/s 698 mmHg 71%
    04:00 +8°C° 0 mm 4 m/s 697 mmHg 71%
    05:00 +8°C° 0 mm 4 m/s 697 mmHg 72%
    06:00 +9°C° 0 mm 3 m/s 697 mmHg 71%
    07:00 +9°C° 0 mm 3 m/s 697 mmHg 70%
    08:00 +9°C° 0 mm 2 m/s 697 mmHg 69%
    09:00 +12°C° 0 mm 3 m/s 697 mmHg 61%
    10:00 +14°C° 0 mm 4 m/s 698 mmHg 52%
    11:00 +18°C° 0 mm 4 m/s 698 mmHg 43%
    12:00 +19°C° 0 mm 4 m/s 697 mmHg 41%
    13:00 +20°C° 0 mm 4 m/s 697 mmHg 40%
    14:00 +20°C° 0 mm 4 m/s 696 mmHg 38%
    15:00 +19°C° 0 mm 3 m/s 696 mmHg 42%
    16:00 +18°C° 0 mm 3 m/s 695 mmHg 46%
    17:00 +17°C° 0 mm 2 m/s 695 mmHg 50%
    18:00 +15°C° 0 mm 2 m/s 695 mmHg 58%
    19:00 +13°C° 0 mm 1 m/s 695 mmHg 65%
    20:00 +11°C° 0 mm 1 m/s 695 mmHg 73%
    21:00 +10°C° 0 mm 2 m/s 696 mmHg 71%
    22:00 +10°C° 0 mm 2 m/s 696 mmHg 69%
    23:00 +10°C° 0 mm 2 m/s 697 mmHg 67%
    Arată mai mult